No particular awareness of the weather is required.    There are no Weather-warnings


Meteo18 Weather Cam more information Meteo18 Weather Cam


Thunder radar more information blitzortung!


Rain radar more information rain snow radar


Visit our other weather sites:

Template documentation
and downloads

And another site



Weather Underground History page Text

Daily Summary for August 5, 2017 Units:  English    Metric   Both
« Previous Day
Next Day »
Daily Weekly Monthly Yearly Custom
  High: Low: Average:
Temperature: TemperatureC °F 16.8 °F 20.6 °F
Dew Point: DewpointC °F 10.9 °F 15 °F
Humidity: Humidity % 50 % 71 %
Wind Speed: WindSpeedKMH mph 0.0 mph 5.7 mph
Wind Gust: WindSpeedGustKMH mph - -
Wind:- - West
Pressure: PressurehPa in 1016.1 in -
Precipitation: 0.0 in    
Historical Graphs
 
 
Tabular Data for August 5, 2017
Time Temperature Dew Point Pressure Wind Wind Speed Wind Gust Humidity Rainfall Rate (Hourly)
TemperatureC °F DewpointC °F PressurehPa in Calm     Humidity % HourlyPrecipMM in
00:02 21.2 °F 17.2 °F 1017.2 in Calm   1.6 mph 78 % 0.0 in
00:07 21.2 °F 17.0 °F 1017.2 in Calm   1.6 mph 77 % 0.0 in
00:12 21.1 °F 17.1 °F 1017.2 in Calm   1.6 mph 78 % 0.0 in
00:17 21.1 °F 17.1 °F 1017.2 in Calm   1.6 mph 78 % 0.0 in
00:22 20.9 °F 17.1 °F 1017.2 in Calm   1.6 mph 79 % 0.0 in
00:27 20.8 °F 17.2 °F 1017.2 in Calm   1.6 mph 80 % 0.0 in
00:32 20.8 °F 17.4 °F 1017.2 in Calm   1.6 mph 81 % 0.0 in
00:42 20.7 °F 17.3 °F 1017.2 in SSW 1.6 mph 3.2 mph 81 % 0.0 in
00:47 20.7 °F 17.3 °F 1016.8 in SSW 1.6 mph 3.2 mph 81 % 0.0 in
00:52 20.8 °F 17.2 °F 1016.8 in SSW 1.6 mph 3.2 mph 80 % 0.0 in
00:57 20.9 °F 17.3 °F 1016.8 in SSW 3.2 mph 4.8 mph 80 % 0.0 in
01:02 21.1 °F 17.5 °F 1016.8 in SSW 3.2 mph 4.8 mph 80 % 0.0 in
01:07 21.1 °F 17.5 °F 1016.8 in South 3.2 mph 6.4 mph 80 % 0.0 in
01:12 21.1 °F 17.5 °F 1016.8 in SSW 1.6 mph 6.4 mph 80 % 0.0 in
01:17 21.1 °F 17.7 °F 1016.5 in WSW 8.0 mph 8.0 mph 81 % 0.0 in
01:22 21.2 °F 17.8 °F 1016.8 in SW 4.8 mph 8.0 mph 81 % 0.0 in
01:27 21.3 °F 17.7 °F 1016.8 in WSW 8.0 mph 9.7 mph 80 % 0.0 in
01:32 21.4 °F 17.8 °F 1016.8 in SW 4.8 mph 11.3 mph 80 % 0.0 in
01:42 21.4 °F 17.8 °F 1016.5 in SSW 6.4 mph 12.9 mph 80 % 0.0 in
01:52 21.3 °F 17.7 °F 1016.5 in SW 8.0 mph 12.9 mph 80 % 0.0 in
01:57 21.3 °F 17.9 °F 1016.5 in SW 4.8 mph 11.3 mph 81 % 0.0 in
02:02 21.2 °F 17.8 °F 1016.5 in SW 6.4 mph 9.7 mph 81 % 0.0 in
02:07 21.2 °F 17.8 °F 1016.5 in SSW 4.8 mph 9.7 mph 81 % 0.0 in
02:12 21.1 °F 17.9 °F 1016.5 in SSW 6.4 mph 9.7 mph 82 % 0.0 in
02:17 21.1 °F 17.9 °F 1016.5 in SSW 3.2 mph 9.7 mph 82 % 0.0 in
02:22 21.0 °F 17.8 °F 1016.5 in SSW 3.2 mph 8.0 mph 82 % 0.0 in
02:27 20.9 °F 17.9 °F 1016.5 in SW 4.8 mph 8.0 mph 83 % 0.0 in
02:32 20.9 °F 17.9 °F 1016.5 in SW 8.0 mph 8.0 mph 83 % 0.0 in
02:37 20.9 °F 17.9 °F 1016.5 in SW 3.2 mph 8.0 mph 83 % 0.0 in
02:42 21.0 °F 17.8 °F 1016.5 in SW 4.8 mph 8.0 mph 82 % 0.0 in
02:47 21.1 °F 17.7 °F 1016.5 in WSW 4.8 mph 8.0 mph 81 % 0.0 in
02:52 21.2 °F 17.8 °F 1016.1 in SSW 3.2 mph 8.0 mph 81 % 0.0 in
02:57 21.2 °F 17.8 °F 1016.1 in SW 1.6 mph 8.0 mph 81 % 0.0 in
03:02 21.2 °F 17.8 °F 1016.1 in South 3.2 mph 8.0 mph 81 % 0.0 in
03:07 21.2 °F 17.8 °F 1016.1 in SW 3.2 mph 6.4 mph 81 % 0.0 in
03:12 21.1 °F 17.9 °F 1016.1 in SSW 1.6 mph 6.4 mph 82 % 0.0 in
03:17 21.1 °F 17.9 °F 1016.1 in SW 4.8 mph 4.8 mph 82 % 0.0 in
03:22 21.1 °F 17.9 °F 1016.5 in SSW 4.8 mph 6.4 mph 82 % 0.0 in
03:27 21.1 °F 17.9 °F 1016.1 in SW 3.2 mph 6.4 mph 82 % 0.0 in
03:32 21.1 °F 17.9 °F 1016.1 in SW 3.2 mph 6.4 mph 82 % 0.0 in
03:37 21.0 °F 18.0 °F 1016.1 in SSW 3.2 mph 6.4 mph 83 % 0.0 in
03:42 20.9 °F 17.9 °F 1016.1 in SW 3.2 mph 6.4 mph 83 % 0.0 in
03:47 21.0 °F 17.8 °F 1016.5 in SW 4.8 mph 9.7 mph 82 % 0.0 in
03:52 21.2 °F 17.8 °F 1016.1 in WSW 6.4 mph 9.7 mph 81 % 0.0 in
03:57 21.2 °F 17.8 °F 1016.5 in WSW 6.4 mph 12.9 mph 81 % 0.0 in
04:02 21.2 °F 17.8 °F 1016.5 in SSW 1.6 mph 12.9 mph 81 % 0.0 in
04:07 21.2 °F 17.8 °F 1016.5 in SW 6.4 mph 11.3 mph 81 % 0.0 in
04:12 21.2 °F 17.8 °F 1016.5 in SSW 4.8 mph 11.3 mph 81 % 0.0 in
04:17 21.1 °F 17.7 °F 1016.5 in SSW 4.8 mph 9.7 mph 81 % 0.0 in
04:22 21.1 °F 17.7 °F 1016.5 in SW 1.6 mph 11.3 mph 81 % 0.0 in
04:32 21.1 °F 17.9 °F 1016.5 in SW 4.8 mph 14.5 mph 82 % 0.0 in
04:37 21.1 °F 17.9 °F 1016.1 in SW 3.2 mph 14.5 mph 82 % 0.0 in
04:42 21.0 °F 17.8 °F 1016.1 in SW 6.4 mph 14.5 mph 82 % 0.0 in
04:47 20.9 °F 17.7 °F 1016.1 in SW 6.4 mph 12.9 mph 82 % 0.0 in
04:52 20.9 °F 17.9 °F 1016.1 in South 3.2 mph 12.9 mph 83 % 0.0 in
04:57 20.8 °F 17.8 °F 1016.1 in SSW 4.8 mph 12.9 mph 83 % 0.0 in
05:02 20.8 °F 18.0 °F 1016.5 in SSW 6.4 mph 12.9 mph 84 % 0.0 in
05:12 20.7 °F 18.1 °F 1016.1 in WSW 9.7 mph 12.9 mph 85 % 0.0 in
05:22 20.3 °F 18.1 °F 1016.1 in WSW 9.7 mph 14.5 mph 87 % 0.0 in
05:27 20.1 °F 18.0 °F 1016.1 in SW 4.8 mph 14.5 mph 88 % 0.0 in
05:37 19.8 °F 18.1 °F 1016.1 in WSW 4.8 mph 12.9 mph 90 % 0.0 in
05:42 19.7 °F 18.2 °F 1016.1 in WSW 6.4 mph 9.7 mph 91 % 0.0 in
05:47 19.7 °F 18.2 °F 1016.5 in SW 6.4 mph 9.7 mph 91 % 0.0 in
05:52 19.6 °F 18.3 °F 1016.1 in SSW 8.0 mph 12.9 mph 92 % 0.0 in
05:57 19.6 °F 18.3 °F 1016.1 in SSW 6.4 mph 12.9 mph 92 % 0.0 in
06:02 19.6 °F 18.3 °F 1016.5 in WSW 8.0 mph 12.9 mph 92 % 0.0 in
06:07 19.6 °F 18.3 °F 1016.5 in WSW 9.7 mph 12.9 mph 92 % 0.0 in
06:12 19.6 °F 18.3 °F 1016.5 in SSW 6.4 mph 14.5 mph 92 % 0.0 in
06:17 19.6 °F 18.3 °F 1016.5 in SW 8.0 mph 14.5 mph 92 % 0.0 in
06:22 19.6 °F 18.3 °F 1016.5 in SW 8.0 mph 14.5 mph 92 % 0.0 in
06:32 19.7 °F 18.2 °F 1016.5 in SW 6.4 mph 12.9 mph 91 % 0.0 in
06:42 19.7 °F 18.2 °F 1016.8 in WSW 4.8 mph 12.9 mph 91 % 0.0 in
06:47 19.7 °F 18.2 °F 1016.8 in West 6.4 mph 12.9 mph 91 % 0.0 in
06:52 19.8 °F 18.1 °F 1016.8 in WSW 9.7 mph 12.9 mph 90 % 0.0 in
06:57 19.8 °F 18.1 °F 1016.8 in SW 8.0 mph 14.5 mph 90 % 0.0 in
07:02 19.8 °F 18.1 °F 1016.8 in WSW 14.5 mph 16.1 mph 90 % 0.0 in
07:07 19.8 °F 17.9 °F 1016.8 in SW 12.9 mph 20.9 mph 89 % 0.0 in
07:12 19.8 °F 17.9 °F 1016.8 in WSW 12.9 mph 20.9 mph 89 % 0.0 in
07:17 19.8 °F 17.9 °F 1016.8 in SW 8.0 mph 20.9 mph 89 % 0.0 in
07:22 19.8 °F 17.8 °F 1016.8 in SW 14.5 mph 16.1 mph 88 % 0.0 in
07:27 19.8 °F 17.8 °F 1017.2 in WSW 9.7 mph 16.1 mph 88 % 0.0 in
07:32 19.8 °F 17.8 °F 1017.2 in WNW 6.4 mph 17.7 mph 88 % 0.0 in
07:37 19.8 °F 17.8 °F 1017.2 in West 8.0 mph 17.7 mph 88 % 0.0 in
07:42 19.8 °F 17.8 °F 1017.2 in West 9.7 mph 20.9 mph 88 % 0.0 in
07:47 19.8 °F 17.8 °F 1017.2 in WSW 11.3 mph 20.9 mph 88 % 0.0 in
07:52 19.8 °F 17.8 °F 1017.2 in SW 1.6 mph 17.7 mph 88 % 0.0 in
07:57 19.7 °F 17.8 °F 1017.2 in West 4.8 mph 14.5 mph 89 % 0.0 in
08:02 19.6 °F 17.7 °F 1017.5 in West 6.4 mph 19.3 mph 89 % 0.0 in
08:07 19.4 °F 17.7 °F 1017.5 in SW 8.0 mph 19.3 mph 90 % 0.0 in
08:12 19.2 °F 17.7 °F 1017.5 in WSW 4.8 mph 19.3 mph 91 % 0.0 in
08:17 19.1 °F 17.8 °F 1017.5 in SW 11.3 mph 17.7 mph 92 % 0.0 in
08:22 19.0 °F 17.5 °F 1017.5 in West 8.0 mph 22.5 mph 91 % 0.0 in
08:27 18.9 °F 17.2 °F 1017.5 in WNW 8.0 mph 22.5 mph 90 % 0.0 in
08:32 18.9 °F 17.2 °F 1017.5 in WSW 17.7 mph 22.5 mph 90 % 0.0 in
08:37 18.9 °F 17.0 °F 1017.8 in West 3.2 mph 17.7 mph 89 % 0.0 in
08:42 18.9 °F 17.0 °F 1017.5 in WSW 6.4 mph 17.7 mph 89 % 0.0 in
08:47 18.9 °F 16.9 °F 1017.8 in WSW 11.3 mph 17.7 mph 88 % 0.0 in
08:52 18.9 °F 17.0 °F 1017.8 in West 9.7 mph 14.5 mph 89 % 0.0 in
08:57 18.9 °F 16.9 °F 1017.8 in West 9.7 mph 17.7 mph 88 % 0.0 in
09:02 19.1 °F 17.2 °F 1017.8 in WSW 4.8 mph 17.7 mph 89 % 0.0 in
09:12 19.3 °F 17.4 °F 1017.8 in West 8.0 mph 17.7 mph 89 % 0.0 in
09:17 19.3 °F 17.1 °F 1018.2 in WSW 11.3 mph 17.7 mph 87 % 0.0 in
09:22 19.4 °F 17.2 °F 1018.2 in WSW 9.7 mph 17.7 mph 87 % 0.0 in
09:27 19.6 °F 17.2 °F 1018.2 in WNW 8.0 mph 14.5 mph 86 % 0.0 in
09:32 19.7 °F 16.7 °F 1018.2 in West 9.7 mph 17.7 mph 83 % 0.0 in
09:37 19.7 °F 16.5 °F 1018.2 in WSW 8.0 mph 19.3 mph 82 % 0.0 in
09:42 19.8 °F 16.8 °F 1018.2 in West 11.3 mph 19.3 mph 83 % 0.0 in
09:47 19.8 °F 16.6 °F 1018.5 in WNW 8.0 mph 19.3 mph 82 % 0.0 in
09:52 19.9 °F 16.7 °F 1018.5 in WNW 11.3 mph 16.1 mph 82 % 0.0 in
09:57 20.1 °F 16.7 °F 1018.5 in West 4.8 mph 17.7 mph 81 % 0.0 in
10:02 20.3 °F 16.7 °F 1018.5 in West 8.0 mph 19.3 mph 80 % 0.0 in
10:07 20.4 °F 16.4 °F 1018.5 in SW 11.3 mph 19.3 mph 78 % 0.0 in
10:12 20.6 °F 16.4 °F 1018.8 in NW 8.0 mph 19.3 mph 77 % 0.0 in
10:17 20.3 °F 15.9 °F 1018.8 in NW 6.4 mph 19.3 mph 76 % 0.0 in
10:22 20.2 °F 16.0 °F 1018.8 in West 11.3 mph 19.3 mph 77 % 0.0 in
10:27 20.4 °F 16.2 °F 1018.8 in West 14.5 mph 19.3 mph 77 % 0.0 in
10:32 20.5 °F 15.7 °F 1018.8 in WSW 8.0 mph 17.7 mph 74 % 0.0 in
10:37 20.8 °F 16.0 °F 1018.8 in SW 9.7 mph 17.7 mph 74 % 0.0 in
10:42 20.7 °F 15.5 °F 1018.8 in SW 14.5 mph 17.7 mph 72 % 0.0 in
10:47 20.7 °F 15.9 °F 1018.8 in SSW 6.4 mph 17.7 mph 74 % 0.0 in
10:57 20.7 °F 15.5 °F 1018.8 in WSW 9.7 mph 17.7 mph 72 % 0.0 in
11:02 20.8 °F 15.6 °F 1019.2 in West 6.4 mph 14.5 mph 72 % 0.0 in
11:07 20.7 °F 15.0 °F 1018.8 in WSW 9.7 mph 14.5 mph 70 % 0.0 in
11:12 20.8 °F 15.3 °F 1018.8 in West 8.0 mph 17.7 mph 71 % 0.0 in
11:17 21.1 °F 15.0 °F 1018.8 in South 6.4 mph 17.7 mph 68 % 0.0 in
11:22 21.2 °F 15.1 °F 1018.8 in West 8.0 mph 17.7 mph 68 % 0.0 in
11:27 21.3 °F 14.5 °F 1018.8 in West 11.3 mph 19.3 mph 65 % 0.0 in
11:32 21.0 °F 14.6 °F 1018.8 in West 1.6 mph 22.5 mph 67 % 0.0 in
11:42 20.8 °F 14.9 °F 1018.8 in WNW 4.8 mph 22.5 mph 69 % 0.0 in
11:47 21.1 °F 15.2 °F 1018.8 in Calm   16.1 mph 69 % 0.0 in
11:52 21.8 °F 14.9 °F 1018.8 in WNW 12.9 mph 12.9 mph 65 % 0.0 in
11:57 21.9 °F 14.8 °F 1018.8 in WNW 4.8 mph 17.7 mph 64 % 0.0 in
12:02 22.1 °F 15.0 °F 1018.8 in WNW 9.7 mph 22.5 mph 64 % 0.0 in
12:07 21.5 °F 14.9 °F 1018.8 in NW 12.9 mph 22.5 mph 66 % 0.0 in
12:12 21.7 °F 14.6 °F 1018.8 in WNW 8.0 mph 22.5 mph 64 % 0.0 in
12:17 22.2 °F 15.1 °F 1018.8 in WSW 3.2 mph 20.9 mph 64 % 0.0 in
12:22 22.4 °F 14.8 °F 1019.2 in WNW 11.3 mph 17.7 mph 62 % 0.0 in
12:32 22.1 °F 14.0 °F 1019.2 in West 6.4 mph 16.1 mph 60 % 0.0 in
12:42 22.2 °F 14.6 °F 1019.5 in NNW 4.8 mph 20.9 mph 62 % 0.0 in
12:47 21.9 °F 14.0 °F 1019.5 in West 4.8 mph 20.9 mph 61 % 0.0 in
12:52 22.0 °F 13.9 °F 1019.5 in NW 8.0 mph 20.9 mph 60 % 0.0 in
13:02 22.1 °F 14.2 °F 1019.9 in WNW 6.4 mph 20.9 mph 61 % 0.0 in
13:07 22.3 °F 14.4 °F 1019.9 in West 4.8 mph 20.9 mph 61 % 0.0 in
13:12 22.5 °F 14.1 °F 1019.9 in West 8.0 mph 22.5 mph 59 % 0.0 in
13:17 22.5 °F 14.3 °F 1019.9 in NNE 6.4 mph 22.5 mph 60 % 0.0 in
13:22 22.5 °F 14.3 °F 1019.9 in West 8.0 mph 22.5 mph 60 % 0.0 in
13:27 22.3 °F 13.9 °F 1019.9 in WNW 6.4 mph 22.5 mph 59 % 0.0 in
13:32 22.3 °F 13.6 °F 1019.9 in West 11.3 mph 22.5 mph 58 % 0.0 in
13:37 22.2 °F 14.3 °F 1019.9 in WNW 17.7 mph 22.5 mph 61 % 0.0 in
13:42 22.1 °F 14.2 °F 1019.9 in WNW 8.0 mph 20.9 mph 61 % 0.0 in
13:47 21.9 °F 14.0 °F 1019.9 in West 8.0 mph 19.3 mph 61 % 0.0 in
13:52 21.8 °F 13.4 °F 1019.9 in NW 9.7 mph 20.9 mph 59 % 0.0 in
13:57 21.9 °F 13.8 °F 1019.9 in WNW 4.8 mph 22.5 mph 60 % 0.0 in
14:02 21.9 °F 13.8 °F 1019.9 in West 4.8 mph 22.5 mph 60 % 0.0 in
14:07 21.8 °F 13.4 °F 1019.9 in NW 9.7 mph 20.9 mph 59 % 0.0 in
14:12 21.7 °F 13.1 °F 1020.2 in WNW 14.5 mph 17.7 mph 58 % 0.0 in
14:17 21.7 °F 13.1 °F 1020.2 in WNW 8.0 mph 19.3 mph 58 % 0.0 in
14:22 21.7 °F 13.1 °F 1020.2 in WNW 6.4 mph 19.3 mph 58 % 0.0 in
14:27 21.7 °F 13.1 °F 1020.2 in NW 8.0 mph 20.9 mph 58 % 0.0 in
14:32 21.7 °F 12.8 °F 1020.2 in WNW 6.4 mph 20.9 mph 57 % 0.0 in
14:37 21.7 °F 13.1 °F 1020.2 in NW 11.3 mph 20.9 mph 58 % 0.0 in
14:42 21.6 °F 13.0 °F 1020.2 in WSW 9.7 mph 17.7 mph 58 % 0.0 in
14:47 21.7 °F 13.1 °F 1020.2 in WNW 9.7 mph 17.7 mph 58 % 0.0 in
14:52 21.6 °F 13.2 °F 1020.2 in WSW 12.9 mph 16.1 mph 59 % 0.0 in
14:57 21.7 °F 13.3 °F 1020.2 in West 6.4 mph 19.3 mph 59 % 0.0 in
15:02 21.8 °F 13.2 °F 1020.5 in West 9.7 mph 19.3 mph 58 % 0.0 in
15:07 21.7 °F 13.3 °F 1020.5 in West 3.2 mph 16.1 mph 59 % 0.0 in
15:12 21.7 °F 13.1 °F 1020.5 in WSW 4.8 mph 19.3 mph 58 % 0.0 in
15:17 21.7 °F 13.1 °F 1020.5 in WNW 4.8 mph 19.3 mph 58 % 0.0 in
15:22 21.8 °F 13.2 °F 1020.5 in WNW 11.3 mph 19.3 mph 58 % 0.0 in
15:27 21.9 °F 13.3 °F 1020.5 in West 8.0 mph 19.3 mph 58 % 0.0 in
15:32 22.2 °F 13.5 °F 1020.5 in West 6.4 mph 17.7 mph 58 % 0.0 in
15:37 22.4 °F 13.5 °F 1020.5 in WNW 9.7 mph 16.1 mph 57 % 0.0 in
15:42 22.1 °F 13.2 °F 1020.2 in WNW 4.8 mph 17.7 mph 57 % 0.0 in
15:47 22.1 °F 13.4 °F 1020.5 in West 9.7 mph 17.7 mph 58 % 0.0 in
15:52 22.1 °F 13.4 °F 1020.5 in West 9.7 mph 17.7 mph 58 % 0.0 in
16:02 22.1 °F 13.7 °F 1020.5 in West 1.6 mph 20.9 mph 59 % 0.0 in
16:07 22.1 °F 13.4 °F 1020.5 in WNW 6.4 mph 20.9 mph 58 % 0.0 in
16:12 22.1 °F 13.7 °F 1020.5 in NNW 4.8 mph 17.7 mph 59 % 0.0 in
16:17 22.1 °F 14.0 °F 1020.5 in WNW 11.3 mph 17.7 mph 60 % 0.0 in
16:22 21.9 °F 13.8 °F 1020.5 in WNW 4.8 mph 17.7 mph 60 % 0.0 in
16:27 21.8 °F 13.4 °F 1020.5 in WNW 4.8 mph 16.1 mph 59 % 0.0 in
16:32 21.6 °F 13.8 °F 1020.5 in WNW 14.5 mph 22.5 mph 61 % 0.0 in
16:42 21.7 °F 13.3 °F 1020.5 in WNW 6.4 mph 22.5 mph 59 % 0.0 in
16:47 21.8 °F 13.7 °F 1020.5 in WNW 12.9 mph 16.1 mph 60 % 0.0 in
16:52 21.9 °F 13.5 °F 1020.5 in WSW 3.2 mph 16.1 mph 59 % 0.0 in
16:57 21.9 °F 13.5 °F 1020.5 in WNW 6.4 mph 17.7 mph 59 % 0.0 in
17:02 22.0 °F 13.6 °F 1020.5 in WNW 4.8 mph 17.7 mph 59 % 0.0 in
17:07 21.9 °F 13.8 °F 1020.5 in NNW 1.6 mph 17.7 mph 60 % 0.0 in
17:12 22.2 °F 13.5 °F 1020.5 in NNW 8.0 mph 11.3 mph 58 % 0.0 in
17:17 22.1 °F 13.4 °F 1020.5 in WNW 4.8 mph 14.5 mph 58 % 0.0 in
17:22 22.2 °F 13.5 °F 1020.5 in WNW 9.7 mph 16.1 mph 58 % 0.0 in
17:27 22.7 °F 13.5 °F 1020.5 in West 12.9 mph 17.7 mph 56 % 0.0 in
17:32 22.6 °F 13.1 °F 1020.5 in WNW 3.2 mph 17.7 mph 55 % 0.0 in
17:37 22.6 °F 13.4 °F 1020.5 in NW 4.8 mph 17.7 mph 56 % 0.0 in
17:42 22.7 °F 12.9 °F 1020.5 in WNW 4.8 mph 16.1 mph 54 % 0.0 in
17:47 22.7 °F 12.6 °F 1020.5 in West 1.6 mph 16.1 mph 53 % 0.0 in
17:52 23.0 °F 12.3 °F 1020.5 in WNW 4.8 mph 22.5 mph 51 % 0.0 in
17:57 22.9 °F 11.9 °F 1020.5 in West 8.0 mph 22.5 mph 50 % 0.0 in
18:02 22.7 °F 12.3 °F 1020.5 in West 12.9 mph 22.5 mph 52 % 0.0 in
18:07 22.4 °F 12.1 °F 1020.5 in WNW 6.4 mph 19.3 mph 52 % 0.0 in
18:12 22.3 °F 12.0 °F 1020.5 in WNW 8.0 mph 17.7 mph 52 % 0.0 in
18:17 22.2 °F 11.9 °F 1020.5 in West 6.4 mph 14.5 mph 52 % 0.0 in
18:22 22.2 °F 11.9 °F 1020.5 in NW 9.7 mph 9.7 mph 52 % 0.0 in
18:27 22.1 °F 11.8 °F 1020.5 in WNW 4.8 mph 14.5 mph 52 % 0.0 in
18:32 22.0 °F 11.7 °F 1020.5 in NW 4.8 mph 14.5 mph 52 % 0.0 in
18:42 21.9 °F 11.6 °F 1020.5 in WNW 4.8 mph 12.9 mph 52 % 0.0 in
18:47 21.9 °F 11.9 °F 1020.9 in NNW 1.6 mph 11.3 mph 53 % 0.0 in
18:57 21.8 °F 11.8 °F 1020.9 in West 3.2 mph 11.3 mph 53 % 0.0 in
19:02 21.8 °F 12.1 °F 1020.9 in West 3.2 mph 11.3 mph 54 % 0.0 in
19:07 21.7 °F 12.0 °F 1020.9 in NW 3.2 mph 11.3 mph 54 % 0.0 in
19:12 21.7 °F 12.0 °F 1020.9 in NW 3.2 mph 9.7 mph 54 % 0.0 in
19:17 21.7 °F 12.3 °F 1020.9 in WNW 4.8 mph 9.7 mph 55 % 0.0 in
19:22 21.7 °F 12.3 °F 1020.9 in NW 3.2 mph 9.7 mph 55 % 0.0 in
19:27 21.7 °F 12.3 °F 1020.9 in NW 3.2 mph 8.0 mph 55 % 0.0 in
19:32 21.9 °F 12.2 °F 1020.9 in WNW 1.6 mph 8.0 mph 54 % 0.0 in
19:37 22.1 °F 12.4 °F 1020.9 in WNW 3.2 mph 9.7 mph 54 % 0.0 in
19:42 21.9 °F 11.9 °F 1020.9 in NNW 4.8 mph 11.3 mph 53 % 0.0 in
19:47 21.9 °F 12.2 °F 1020.9 in Calm   11.3 mph 54 % 0.0 in
19:52 21.9 °F 11.9 °F 1020.9 in NW 6.4 mph 11.3 mph 53 % 0.0 in
19:57 21.8 °F 12.1 °F 1020.9 in WNW 3.2 mph 9.7 mph 54 % 0.0 in
20:02 21.8 °F 12.1 °F 1020.9 in WNW 1.6 mph 9.7 mph 54 % 0.0 in
20:07 21.8 °F 12.1 °F 1021.2 in NW 4.8 mph 9.7 mph 54 % 0.0 in
20:12 21.9 °F 12.2 °F 1021.2 in WNW 1.6 mph 8.0 mph 54 % 0.0 in
20:17 21.9 °F 12.2 °F 1021.2 in Calm   8.0 mph 54 % 0.0 in
20:22 21.8 °F 11.8 °F 1021.2 in WSW 3.2 mph 8.0 mph 53 % 0.0 in
20:27 21.6 °F 11.6 °F 1021.2 in West 3.2 mph 8.0 mph 53 % 0.0 in
20:32 21.5 °F 11.8 °F 1021.2 in West 1.6 mph 8.0 mph 54 % 0.0 in
20:37 21.4 °F 12.0 °F 1021.2 in West 1.6 mph 8.0 mph 55 % 0.0 in
20:47 21.2 °F 12.1 °F 1021.2 in Calm   4.8 mph 56 % 0.0 in
20:52 21.3 °F 12.2 °F 1021.2 in West 1.6 mph 4.8 mph 56 % 0.0 in
20:57 21.3 °F 12.4 °F 1021.2 in West 1.6 mph 4.8 mph 57 % 0.0 in
21:02 21.1 °F 12.5 °F 1021.2 in Calm   3.2 mph 58 % 0.0 in
21:07 20.9 °F 12.6 °F 1021.2 in Calm   1.6 mph 59 % 0.0 in
21:12 20.7 °F 12.7 °F 1021.2 in Calm   1.6 mph 60 % 0.0 in
21:17 20.4 °F 12.6 °F 1021.2 in Calm   1.6 mph 61 % 0.0 in
21:22 20.2 °F 12.7 °F 1021.6 in Calm     62 % 0.0 in
21:27 20.0 °F 12.7 °F 1021.6 in Calm     63 % 0.0 in
21:32 19.8 °F 12.8 °F 1021.6 in Calm     64 % 0.0 in
21:37 19.4 °F 12.7 °F 1021.6 in Calm     65 % 0.0 in
21:42 19.2 °F 12.7 °F 1021.6 in Calm     66 % 0.0 in
21:47 19.0 °F 12.7 °F 1021.9 in Calm     67 % 0.0 in
21:52 18.8 °F 12.8 °F 1021.6 in WNW 3.2 mph   68 % 0.0 in
21:57 18.6 °F 12.6 °F 1021.9 in WNW 3.2 mph 3.2 mph 68 % 0.0 in
22:02 18.4 °F 12.4 °F 1021.9 in Calm   3.2 mph 68 % 0.0 in
22:07 18.2 °F 12.4 °F 1021.9 in West 1.6 mph 3.2 mph 69 % 0.0 in
22:12 18.1 °F 12.3 °F 1021.9 in NW 3.2 mph 3.2 mph 69 % 0.0 in
22:17 17.9 °F 12.1 °F 1022.2 in WNW 1.6 mph 4.8 mph 69 % 0.0 in
22:22 17.7 °F 12.2 °F 1021.9 in Calm   4.8 mph 70 % 0.0 in
22:27 17.6 °F 12.3 °F 1022.2 in WNW 1.6 mph 4.8 mph 71 % 0.0 in
22:32 17.6 °F 12.3 °F 1022.2 in Calm   3.2 mph 71 % 0.0 in
22:37 17.5 °F 12.2 °F 1022.2 in Calm   3.2 mph 71 % 0.0 in
22:42 17.4 °F 12.1 °F 1022.2 in WNW 1.6 mph 3.2 mph 71 % 0.0 in
22:47 17.2 °F 11.9 °F 1022.2 in WNW 1.6 mph 3.2 mph 71 % 0.0 in
22:52 17.1 °F 12.0 °F 1022.2 in West 1.6 mph 3.2 mph 72 % 0.0 in
22:57 17.1 °F 12.0 °F 1022.2 in WNW 4.8 mph 4.8 mph 72 % 0.0 in
23:02 17.0 °F 11.9 °F 1022.2 in WNW 3.2 mph 4.8 mph 72 % 0.0 in
23:07 16.9 °F 12.0 °F 1022.2 in WNW 4.8 mph 4.8 mph 73 % 0.0 in
23:12 16.8 °F 11.7 °F 1022.2 in WNW 1.6 mph 4.8 mph 72 % 0.0 in
23:17 16.9 °F 11.6 °F 1022.2 in NW 3.2 mph 4.8 mph 71 % 0.0 in
23:22 17.0 °F 11.7 °F 1022.2 in NW 6.4 mph 6.4 mph 71 % 0.0 in
23:27 17.1 °F 11.4 °F 1022.2 in WNW 6.4 mph 9.7 mph 69 % 0.0 in
23:32 17.2 °F 11.2 °F 1022.2 in WNW 6.4 mph 9.7 mph 68 % 0.0 in
23:37 17.3 °F 11.1 °F 1022.6 in WNW 1.6 mph 9.7 mph 67 % 0.0 in
23:42 17.3 °F 10.9 °F 1022.6 in WNW 3.2 mph 9.7 mph 66 % 0.0 in
23:47 17.3 °F 10.9 °F 1022.2 in WNW 1.6 mph 11.3 mph 66 % 0.0 in
23:52 17.3 °F 10.9 °F 1022.6 in WNW 1.6 mph 11.3 mph 66 % 0.0 in
23:57 17.3 °F 10.9 °F 1022.6 in West 1.6 mph 11.3 mph 66 % 0.0 in
Meteo18
Compliments of Weather Underground - 4 mb

Script developed by  Jim McMurry - jmcmurry@mwt.net Adapted for the template by  Wim van der Kuil - Leuven-Template.eu

You find our weather info also at:

European Weather Network

Weather Underground

Equipment we use:

Weather-station
Davis Vue

Weather-program
Meteobridge

Weather-server
Raspberry PI 2 B+

Provider
1 and 1

Davis Vue

Meteobridge

Raspberry PI 2 B+

1 and 1